Weather in Blagodarny

Russia / Stavropol Krai     45°05′44″N   43°26′24″E
temp.,
°C
wind,
m/s
gust,
m/s
humid.,
%
clouds,
%
prec.,
mm/h
press.,
hPa
HPBL,
m
18 april, sun
sun1800:00+9n1290100 0.4 1022116
03:00+8e2293100 0.4 102131
06:00+9ese3694100 0.0 1020280
09:00+11se5791100 2.4 1019514
12:00+13se5781100 0.4 1017636
15:00+18sse3362100 0.4 10161325
18:00+15e2377100 0.0 1017100
21:00+13se4788100 0.1 1017171
19 april, mon
mon1900:00+11sse2393100 0.0 101646
03:00+11s2292100 0.0 101634
06:00+12ssw1196100 1.0 101623
09:00+12sse1196100 3.1 101746
12:00+16e2183100 0.9 1016385
15:00+17se3480100 1.3 1014476
18:00+15se3890100 0.1 1014228
21:00+13ese469192 0.5 1014116
20 april, tue
tue2000:00+12ese4888100 0.0 1014150
03:00+11ese41088100 0.0 1012228
06:00+10ese61481100 0.0 1010369
09:00+14se81571100 0.1 1008524
12:00+18se91359100 0.0 1006654
15:00+20se81460100 0.1 1005422
18:00+17sse3479100 0.6 100774
21:00+15nnw2286100 0.6 101028
21 april, wed
wed2100:00+12nw71288100 4.1 1012575
03:00+12nnw4879100 4.4 1014437
06:00+11nnw51076100 0.1 1017637
09:00+9nw4988100 1.7 1020773
12:00+10wnw3883100 0.6 1020727
15:00+11wsw1381100 0.7 1021258
18:00+10ese0089100 0.6 102233
21:00+9se2293100 1.9 102475
22 april, thu
thu2200:00+9sse1195100 1.0 102342
03:00+9w1196100 2.9 102348
06:00+9nne1196100 1.5 102333
09:00+10ne1292100 1.8 1024245
12:00+10nne2288100 0.6 1024243
15:00+11nw1284100 0.6 1024205
18:00+10ssw238798 0.1 102499
21:00+9w118999 0.1 102417